Location: Newark
(42.8481°N, 0.4872°E)
Time: 17:26:11
(UTC+00:00)

A-11 Canister half - Pass Details

Date: 27 October 2020
Orbit: 1525 x 1683 km, 47.3° (Epoch: 22 November)

Event Time Altitude Azimuth Distance (km) Brightness Sun altitude
Rises 12:31:03 0° 192° (SSW) 4,817 12.7 33.0°
Reaches altitude 10° 12:34:54 10° 180° (S) 3,808 12.4 32.8°
Maximum altitude 12:42:14 25° 130° (SE) 2,761 10.9 32.4°
Drops below altitude 10° 12:49:23 10° 79° (E) 3,731 10.9 32.0°
Sets 12:53:05 0° 67° (ENE) 4,701 11.2 31.8°
